Location: Charleston
(38.3500°N, 81.6330°W)
Time: 17:43:33
(UTC-04:00)

Daily predictions for brighter satellites

Satellite Brightness Start Highest point End
(mag) Time Altitude Azimuth Time Altitude Azimuth Time Altitude Azimuth
Cosmos 1515 Rocket 3.6 21:19:16 10° N 21:23:42 69° E 21:28:03 10° SSE
DELTA 2 R/B(2) 2.6 21:24:38 10° WSW 21:26:14 69° SSE 21:28:02 10° E
Cosmos 1833 4.2 21:21:06 10° SSW 21:26:47 79° ESE 21:32:29 10° NNE
Cosmos 2333 Rocket 4.3 21:29:56 10° NNE 21:32:15 12° NE 21:34:33 10° ENE
Cosmos 1437 3.3 21:32:44 10° SSE 21:35:49 38° E 21:38:53 10° NNE
Cosmos 1151 Rocket 3.2 21:32:13 10° N 21:36:26 53° E 21:40:40 10° SSE
H-2A R/B 4.0 21:33:56 10° S 21:37:33 40° W 21:41:09 10° NNW
ATLAS 2AS CENTAUR R/B 4.3 21:33:55 10° SE 21:37:44 15° ESE 21:41:42 10° ENE
USA 186 3.8 21:42:25 10° SW 21:44:01 17° W 21:45:39 10° NW
COSMOS 2428 3.6 21:39:38 10° N 21:44:51 36° ENE 21:49:36 12° SE
Cosmos 1437 Rocket 2.9 21:41:36 10° NNW 21:45:25 75° W 21:49:16 10° S
ERS-1 Rocket 3.1 21:41:03 10° SSE 21:46:04 84° WSW 21:51:09 10° NNW
Envisat 3.1 21:42:47 10° SSE 21:47:46 60° ENE 21:52:46 10° N
Cosmos 2266 Rocket 4.0 21:42:11 10° S 21:48:29 81° E 21:54:42 10° N
Cosmos 2219 Rocket 3.8 21:44:39 10° N 21:48:43 20° NE 21:52:46 10° E
Cosmos 1939 Rocket 2.8 21:45:01 10° SSE 21:48:56 72° ENE 21:52:49 10° N
Cosmos 1805 Rocket 4.2 21:46:03 10° SSE 21:50:07 36° E 21:54:11 10° NNE
ERBS 4.1 21:49:50 14° SE 21:50:11 14° ESE 21:52:08 10° E
Cosmos 2315 Rocket 4.1 21:53:34 10° N 21:59:41 58° E 22:05:18 12° SSE
NOSS 3-1 (C) 3.3 21:55:01 10° SSW 22:00:45 68° ESE 22:07:04 10° NE
Cosmos 1726 3.4 21:58:40 10° NNE 22:01:53 26° ENE 22:03:46 18° ESE
SL-23 DEB 4.1 21:57:10 10° NW 22:02:26 65° NE 22:04:59 18° ESE
CZ-3A R/B 4.4 21:24:41 10° WSW 22:02:51 38° SSW 22:07:48 16° SE
OTV 4 1.7 22:01:28 10° SSW 22:03:50 21° SSE 22:04:07 21° SSE
OAO 2 Rocket 3.8 21:58:58 10° SW 22:03:58 43° SSE 22:09:00 10° E
Cosmos 2112 Rocket 4.0 21:58:48 10° NNW 22:04:04 80° ENE 22:08:34 14° SSE
CZ-4 SHROUD 3.5 22:02:06 18° SE 22:04:09 51° ENE 22:07:12 10° N
Cosmos 1937 Rocket 4.3 22:02:33 13° SSE 22:06:31 31° E 22:11:02 10° NE
Cosmos 2237 4.5 22:00:51 10° NNW 22:06:32 58° ENE 22:10:48 17° SE
H-2A R/B 2.5 22:02:38 10° S 22:07:08 67° WSW 22:11:39 10° NNW
Cosmos 1707 Rocket 3.9 22:06:16 10° N 22:10:28 46° E 22:13:15 20° SE
Cosmos 1666 Rocket 3.9 22:09:24 15° SSE 22:12:48 47° E 22:17:04 10° NNE
Cosmos 2298 Rocket 4.1 22:07:39 10° S 22:12:52 61° ESE 22:18:07 10° NNE
Cosmos 1328 3.9 22:10:14 10° SSW 22:14:09 75° W 22:18:08 10° N
Cosmos 2219 3.4 22:09:02 10° SSW 22:14:47 79° WNW 22:20:34 10° NNE
Tiangong 1 1.1 22:12:02 10° WSW 22:15:08 79° NNW 22:18:14 10° ENE
CZ-4 R/B 4.4 22:14:49 10° NNE 22:19:24 38° E 22:22:06 21° SSE
Meteor 1-4 Rocket 3.7 22:16:38 10° NNE 22:19:55 29° ENE 22:21:09 23° ESE
Cosmos 2237 Rocket 3.6 22:17:16 10° N 22:21:54 25° NE 22:25:15 15° E
Cosmos 2333 4.4 22:18:18 10° NNW 22:23:58 60° ENE 22:27:36 23° SE
DELTA 2 R/B (1) 4.0 22:20:15 10° W 22:25:35 48° SSW 22:28:39 24° SE
Cosmos 2322 4.4 22:20:06 10° NNW 22:25:37 51° WSW 22:30:31 13° S
Cosmos 1271 Rocket 3.6 22:23:44 10° N 22:27:17 34° ENE 22:28:32 27° ESE
MetOp-B 4.1 22:23:58 18° SSE 22:28:05 88° ENE 22:33:28 10° NNW
Cosmos 1745 Rocket 4.4 22:27:24 21° SSE 22:31:13 44° E 22:37:00 10° NNE
CZ-4B R/B 3.5 22:26:16 10° NNE 22:31:32 74° ESE 22:36:13 13° S
Cosmos 2360 Rocket 3.2 22:27:18 10° NW 22:32:36 42° WSW 22:37:25 12° S
Cosmos 1703 3.7 22:32:28 31° SE 22:33:42 42° E 22:37:24 10° NNE
SL-14 R/B 3.2 22:31:35 19° S 22:34:21 85° E 22:38:22 10° N
NOAA 11 4.4 22:32:40 24° SE 22:35:50 58° ENE 22:41:11 10° N
H-2A R/B 3.1 22:36:57 23° ESE 22:39:24 34° ENE 22:44:15 10° N
Meteor 1-27 4.2 22:33:49 10° N 22:39:31 87° W 22:43:17 22° S
PSLV R/B 4.4 22:38:58 21° SSW 22:40:34 37° W 22:43:26 10° NNW
Cosmos 1626 3.4 22:41:26 25° E 22:41:26 25° E 22:44:30 10° NE
SPOT 5 3.7 22:41:59 15° SSW 22:45:30 44° W 22:50:07 10° NNW
Delta 2 Rocket 3.0 22:45:05 10° W 22:48:32 48° S 22:48:40 48° S
Cosmos 1898 Rocket 3.7 22:45:51 10° SSW 22:50:59 70° WNW 22:56:12 10° NNE
SPOT 1/Viking Rocket 3.6 22:48:49 26° S 22:51:46 79° WSW 22:56:57 10° NNW
YAOGAN 6 3.2 22:50:10 28° SSW 22:51:46 50° W 22:55:17 10° NNW
Lacrosse 4 Rocket 3.7 22:54:10 10° NNE 22:56:46 15° NE 22:58:32 13° ENE
Cosmos 2227 Rocket 2.2 22:55:43 24° S 22:59:03 62° ESE 23:04:40 10° NNE
Cosmos 1300 4.0 22:58:22 10° NNW 23:01:54 36° W 23:03:49 22° SW
NOSS 3-1 (A) 4.1 22:59:38 10° SW 23:05:24 56° NW 23:11:47 10° NNE
Sich 1 4.0 23:03:04 16° SSW 23:06:25 46° W 23:10:40 10° N
Cosmos 292 Rocket 3.7 23:02:19 10° NNW 23:07:05 78° WSW 23:08:40 42° S
Cosmos 2242 Rocket 3.8 23:03:10 10° NNW 23:07:38 68° W 23:09:20 36° SSW
CARTOSAT-1 3.8 23:08:07 46° ESE 23:08:55 54° ENE 23:13:08 10° N
Cosmos 1862 Rocket 3.7 23:05:10 10° N 23:09:25 53° E 23:10:02 49° ESE
COSMOS 2455 4.0 23:05:59 10° N 23:11:22 33° NE 23:14:03 23° E
Cosmos 1633 Rocket 4.1 23:08:22 16° SW 23:11:32 42° W 23:15:42 10° N
Landsat 7 3.7 23:10:19 45° SSE 23:11:46 83° ENE 23:16:34 10° N
SAR-Lupe-2 4.1 23:15:11 44° ENE 23:15:11 44° ENE 23:18:28 10° N
USA 245 4.5 23:15:30 20° W 23:15:30 20° W 23:17:00 10° NW
SL-16 R/B 3.4 23:11:14 10° N 23:16:12 30° ENE 23:18:12 24° E
Cosmos 2333 Rocket 2.2 23:11:40 10° NNW 23:17:28 79° ENE 23:19:24 44° SE
Cosmos 1346 3.8 23:20:05 53° NNW 23:20:05 53° NNW 23:22:34 10° N
FALCON 9 R/B 3.8 22:55:17 10° W 23:22:33 74° S 23:27:17 25° ESE
Cosmos 1455 2.0 23:20:37 10° N 23:24:27 83° E 23:24:28 83° E
ARGOS 3.9 23:22:16 27° SSW 23:24:50 47° W 23:30:02 10° NNW
BREEZE-M DEB (TANK) 3.9 23:23:09 10° NNW 23:25:09 27° NE 23:25:19 27° NE
Cosmos 2297 Rocket 2.1 23:23:49 40° S 23:25:54 73° ESE 23:31:33 10° NNE
DELTA 2 DEB (DPAF) 4.4 23:25:18 47° SSW 23:26:23 62° WSW 23:30:50 10° NNW
ERBS 3.5 23:23:20 10° WSW 23:26:42 44° NW 23:30:04 10° NNE
ATLAS 2AS CENTAUR R/B 2.9 23:20:02 10° SSW 23:27:26 83° ESE 23:35:29 10° NE
Terra 1.7 23:26:42 58° SSE 23:27:39 84° ENE 23:32:25 10° N
COSMOS 2428 4.1 23:24:05 10° NW 23:28:57 30° WSW 23:31:38 20° SW
DMSP B5D2-2 4.0 23:27:15 10° NNE 23:32:30 89° ESE 23:34:06 46° SSW
Cosmos 2219 Rocket 2.5 23:27:34 10° NNW 23:33:03 57° WSW 23:34:43 41° SSW
Spot 4 3.8 23:34:28 62° SE 23:35:14 77° ENE 23:40:06 10° N
IGS 5A 3.3 23:36:25 79° SSW 23:36:37 84° WSW 23:40:49 10° NNW
Cosmos 468 4.5 23:37:18 10° NNW 23:42:40 72° ENE 23:43:31 60° SE
ATLAS 3B R/B 3.0 23:35:58 10° NNW 23:42:50 56° NE 23:45:16 37° ESE
OAO 2 Rocket 3.5 23:43:17 10° W 23:48:06 59° SSW 23:48:06 59° SSW
COS B Rocket 4.3 23:46:37 10° NNE 23:49:37 40° NE 23:49:37 40° NE
Cosmos 1869 3.7 23:46:39 10° NNW 23:50:34 57° W 23:50:34 57° W
Tiangong 1 3.1 23:49:05 10° WNW 23:51:01 27° NW 23:51:01 27° NW
Cosmos 1980 4.0 23:48:25 10° NNW 23:53:54 54° WSW 23:55:01 46° SSW
